Regional Weather Roundup
Issued by NWS

Home | Current Version | Previous Version | Text Only | Print | Product List | Glossary On
Versions: 1 2 3 4 5 6 7 8 9 10 11 12 13 14 15 16 17 18 19 20 21 22 23 24 25 26 27 28 29 30 31 32 33 34 35 36 37 38 39 40 41 42 43 44 45 46 47 48 49 50
000
ASUS43 KMPX 221810
RWRMN
WEATHER ROUNDUP FOR MINNESOTA
NATIONAL WEATHER SERVICE TWIN CITIES/CHANHASSEN MN
1200 PM CST WED FEB 22 2017


NOTE: "FAIR" INDICATES FEW OR NO CLOUDS BELOW 12,000 FEET WITH NO
SIGNIFICANT WEATHER AND/OR OBSTRUCTIONS TO VISIBILITY. N/A MEANS
CURRENT SKY AND/OR WEATHER CONDITIONS ARE NOT AVAILABLE.

MNZ060>063-068>070-221900-
   Twin Cities Metro

CITY           SKY/WX    TMP DP  RH WIND       PRES   REMARKS
TWIN CITIES    CLOUDY    50  41  71 SE9       29.55F
6HR MIN TEMP:  37; 6HR MAX TEMP:  50;

ST PAUL        CLOUDY    49  43  80 S6        29.56F
CRYSTAL        CLOUDY    48  41  76 NW13      29.57F
BLAINE         CLOUDY    46  46 100 NW21      29.58F
LAKEVILLE      CLOUDY    50  43  76 CALM      29.56F
EDEN PRAIRIE   CLOUDY    48  42  80 S7        29.54F
6HR MIN TEMP:  37; 6HR MAX TEMP:  49;

SOUTH ST PAUL  PTSUNNY   49  41  73 CALM      29.56F
LAKE ELMO      FAIR      50  43  76 E3        29.57F
$$
MNZ001>005-007-008-013>017-022>024-027-028-221900-
   Northwest Minnesota

CITY           SKY/WX    TMP DP  RH WIND       PRES   REMARKS
BEMIDJI        LGT RAIN  33  32  95 N9        29.68R WCI  26
HALLOCK        CLOUDY    34  28  80 N13       29.81R WCI  25
ROSEAU         CLOUDY    32  27  80 N14       29.78R WCI  22
WARROAD        CLOUDY    32  28  86 N12       29.78R WCI  23
THIEF RVR FALL LGT RAIN  33  30  88 N20       29.74S WCI  21
CROOKSTON      MIX PCPN  32  32 100 NE17G24   29.75R WCI  21
FOSSTON        CLOUDY    34  32  93 N13       29.70S WCI  25
DETROIT LAKES  LGT RAIN  36  36 100 N3        29.63F
MOORHEAD       LGT RAIN  34  34 100 N14       29.69R WCI  24
PARK RAPIDS    LGT RAIN  39  34  82 N7        29.64R
MAHNOMEN       LGT RAIN  35  34  99 NE16      29.66F WCI  25
$$
MNZ006-009>011-018-025>026-221900-
   North Central Minnesota

CITY           SKY/WX    TMP DP  RH WIND       PRES   REMARKS
BAUDETTE       LGT SNOW  33  30  88 N9        29.73S FOG     WCI  25
FLAG ISLAND    CLOUDY    30  25  80 N13       29.76F WCI  20
INTL FALLS     CLOUDY    34  31  88 N8        29.71S WCI  27
6HR MIN TEMP:  32; 6HR MAX TEMP:  34; 6HR PCP: TRACE;

WASKISH        CLOUDY    34  32  93 N10       29.71S WCI  26
BIG FORK       CLOUDY    37  34  87 N6        29.67R
LONGVILLE      PTSUNNY   41  36  81 N5        29.63S
GRAND RAPIDS   CLOUDY    40  35  83 N7        29.64F
CRANE LAKE     CLOUDY    36  32  87 N5        29.69F
ORR            CLOUDY    37  30  75 CALM      29.64S
COOK           CLOUDY    37  34  87 NE6       29.65F
WALKER         CLOUDY    36  34  90 N9        29.65R
$$
MNZ012-019>021-037-221900-
   Northeast Minnesota

CITY           SKY/WX    TMP DP  RH WIND       PRES   REMARKS
DULUTH         CLOUDY    46  36  68 E6        29.60F
6HR MIN TEMP:  36; 6HR MAX TEMP:  46;

ELY            PTSUNNY   37  32  81 CALM      29.65S
HIBBING        CLOUDY    39  35  86 N6        29.63S
EVELETH        CLOUDY    40  32  73 NE7       29.64S
DULUTH HARBOR  PTSUNNY   37  36  93 CALM      29.63S
TWO HARBORS    CLOUDY    46  37  71 E6        29.60F
SILVER BAY     CLOUDY    41  36  81 E5        29.61F
GRAND MARAIS     N/A     39  34  82 CALM      29.65R
G MARAIS ARPRT CLOUDY    41  28  60 N3        29.63R
$$
MNZ029>031-032-039>041-046>048-054>057-064-221900-
   West Central Minnesota

CITY           SKY/WX    TMP DP  RH WIND       PRES   REMARKS
FERGUS FALLS   CLOUDY    45  41  87 E13       29.62F
WHEATON        CLOUDY    43  37  81 W9        29.67R
MORRIS         MOSUNNY   46  43  87 N3        29.58F
ALEXANDRIA     MOSUNNY   48  38  68 E9        29.59F
ELBOW LAKE     FAIR      41  38  88 NE6       29.60F
WADENA         LGT RAIN  39  37  93 NW6       29.63R
GLENWOOD       SUNNY     46  41  81 NE10      29.58F
APPLETON       MOSUNNY   48  41  76 E5        29.58F
BENSON         SUNNY     54  37  54 E6        29.59F
ORTONVILLE     CLOUDY    45  39  81 CALM      29.60S
MADISON        PTSUNNY   48  45  87 N8        29.59F
WILLMAR        FAIR      48  45  87 CALM      29.59S
$$
MNZ033>034-036-042>043-049>051-058-059-221900-
   Central Minnesota

CITY           SKY/WX    TMP DP  RH WIND       PRES   REMARKS
ST CLOUD       PTSUNNY   47  41  80 NE7       29.57S
6HR MIN TEMP:  33; 6HR MAX TEMP:  47;

SAUK CENTRE    FAIR      46  39  75 N7        29.60F
PAYNESVILLE    CLOUDY    48  42  81 NE7       29.59R
AITKIN         CLOUDY    46  37  71 N5        29.59F
PINE RIVER     PTSUNNY   41  37  87 N7        29.65F
BRAINERD       PTSUNNY   44  38  79 N8        29.60F
STAPLES        CLOUDY    41  37  87 N6        29.61S
LONG PRAIRIE   CLOUDY    46  37  71 NW7       29.61S
LITTLE FALLS   MOSUNNY   45  37  76 N3        29.60R
LITCHFIELD     PTSUNNY   46  45  93 NE5       29.57F
BUFFALO        CLOUDY    42  41  95 NE6       29.57F FOG
MAPLE LAKE     PTSUNNY   45  45 100 NE6       29.57F
HUTCHINSON     CLOUDY    46  44  92 CALM      29.58F
$$
MNZ037-044-045-052-053-221900-
   East Central Minnesota

CITY           SKY/WX    TMP DP  RH WIND       PRES   REMARKS
PRINCETON      PTSUNNY   45  45 100 N6        29.57F
MORA           CLOUDY    43  43 100 NE3       29.60F
CAMBRIDGE      CLOUDY    45  45 100 NE3       29.56F
RUSH CITY      CLOUDY    41  41 100 E3        29.58F
MOOSE LAKE     CLOUDY    45  37  76 NE6       29.58F
HINCKLEY       FAIR      45  41  87 N3        29.59F
CLOQUET        CLOUDY    45  36  70 N3        29.60F
MCGREGOR       CLOUDY    43  37  81 N5        29.61F
$$
MNZ071>073-080-081-089-090-097-098-221900-
   Southwest Minnesota

CITY           SKY/WX    TMP DP  RH WIND       PRES   REMARKS
MONTEVIDEO     MOSUNNY   48  48 100 N6        29.60F
GRANITE FALLS  MOSUNNY   50  47  90 W12       29.60F
CANBY          CLOUDY    45  42  88 NW7       29.62F
MARSHALL       SUNNY     53  45  74 W7        29.59F
REDWOOD FALLS  CLOUDY    51  43  74 CALM      29.58S
OLIVIA         PTSUNNY   50  45  81 CALM      29.56F
PIPESTONE      SUNNY     55  39  54 W5        29.60F
WINDOM           N/A     54  43  66 W9        29.60S
WORTHINGTON    MOSUNNY   55  42  61 NW9       29.61R
JACKSON        MOSUNNY   54  41  62 NW15G21   29.60R
TRACY          SUNNY     54  47  75 NW7       29.61R
SLAYTON        SUNNY     53  44  72 NW9       29.62R
$$
MNZ065>067-074>077-082>085-091>093-221900-
   South Central Minnesota

CITY           SKY/WX    TMP DP  RH WIND       PRES   REMARKS
MANKATO          N/A     53  42  66 CALM      29.56F
NEW ULM        CLOUDY    52  45  76 W7        29.58R
ST JAMES       MOSUNNY   54  46  76 W12       29.59R
FAIRMONT       MOSUNNY   54  41  61 NW5       29.57F
GLENCOE        CLOUDY    47  47  97 CALM      29.57R
FARIBAULT      MOSUNNY   52  43  71 N3        29.57F
OWATONNA       CLOUDY    54  41  62 NW8       29.58R
WASECA         MOSUNNY   52  41  66 CALM      29.57F
ALBERT LEA     CLOUDY    55  43  62 W5        29.57F
$$
MNZ078>079-086>088-094>096-221900-
   Southeast Minnesota

CITY           SKY/WX    TMP DP  RH WIND       PRES   REMARKS
ROCHESTER      CLOUDY    53  43  68 SW10      29.58F
6HR MIN TEMP:  34; 6HR MAX TEMP:  54;

RED WING       SUNNY     54  37  54 CALM      29.56F
STANTON        CLOUDY    53  42  67 CALM      29.56F
DODGE CENTER   CLOUDY    54  39  58 CALM      29.56S
WINONA         MOSUNNY   55  37  50 E3        29.57F
AUSTIN         CLOUDY    52  41  66 S7        29.58S
PRESTON        MOSUNNY   52  40  64 SW6       29.59F
$$
ABBREVIATIONS USED IN REMARKS
   TC - TEMPERATURES IN CELSIUS
  WCI - WIND CHILL INDEX
   HX - HEAT INDEX
  VSB - VISIBILITY
$$



USA.gov is the U.S. government's official web portal to all federal, state and local government web resources and services.